User: anonymous   Login
Location: Eferding
(48.3167°N, 14.0167°E)
Time: 22:49:37
(UTC+00:00)
Language:

PSLV R/B - Orbit

View from above orbital plane
View from above orbital plane
View from above satellite
View from above satellite

Ground track
Ground track

The orbit data is extracted from the following two-line orbital elements,

1 36800U 10035F   20023.55089037 +.00000508 +00000-0 +52500-4 0  9999
2 36800 098.1476 195.4585 0023493 080.2415 280.1456 14.94637702518836
Epoch (UTC): 23 January 2020 13:13:16
Eccentricity: 0.0023493
inclination: 98.1476°
perigee height: 567 km
apogee height: 600 km
right ascension of ascending node: 195.4585°
argument of perigee: 80.2415°
revolutions per day: 14.94637702
mean anomaly at epoch: 280.1456°
orbit number at epoch: 51883

The dashed part of the orbit path shows where the satellite is in the earth's shadow,  

DLR